Regional Weather Roundup
Issued by NWS

Home | Current Version | Previous Version | Text Only | Print | Product List | Glossary On
Versions: 1 2 3 4 5 6 7 8 9 10 11 12 13 14 15 16 17 18 19 20 21 22 23 24 25 26 27 28 29 30 31 32 33 34 35 36 37 38 39 40 41 42 43 44 45 46 47 48 49 50
000
ASUS43 KOAX 110602
RWRNE

WEATHER ROUNDUP FOR NEBRASKA
NATIONAL WEATHER SERVICE OMAHA NE
100 AM CDT FRI JUL 11 2014

NOTES: SATELLITE DATA IS BEING USED TO AUGMENT CLOUD COVER ABOVE
       12000 FEET.
       "FAIR" INDICATES FEW OR NO CLOUDS BELOW 12,000 FEET WITH NO
       SIGNIFICANT WEATHER AND/OR OBSTRUCTIONS TO VISIBILITY.

  * THESE STATIONS DO NOT REPORT WEATHER SUCH AS RAIN...SNOW OR FOG.

NEZ001>004-019>022-054>056-110700-
NEBRASKA PANHANDLE

CITY           SKY/WX    TMP DP  RH WIND       PRES   REMARKS
SCOTTSBLUFF    MOCLDY    68  62  81 NE5       30.01R
6HR MIN TEMP:  68; 6HR MAX TEMP:  76; 6HR PCP:  0.02;

ALLIANCE       MOCLDY    66  62  87 S20G25    30.03R
6HR MIN TEMP:  65; 6HR MAX TEMP:  75; 6HR PCP:  0.08;

CHADRON        PTCLDY    64  63  96 SW6       29.93F
6HR MIN TEMP:  64; 6HR MAX TEMP:  87; 6HR PCP:  0.13;

KIMBALL        CLOUDY    64  59  81 NE7       30.07R
SIDNEY         CLOUDY    66  61  84 NE17      30.04F
6HR MIN TEMP:  65; 6HR MAX TEMP:  84; 6HR PCP:  0.01;

$$

NEZ057>060-069>072-079>082-110700-
SOUTHWEST NEBRASKA

CITY           SKY/WX    TMP DP  RH WIND       PRES   REMARKS
NORTH PLATTE   MOCLDY    74  68  81 SE14      29.93S
6HR MIN TEMP:  74; 6HR MAX TEMP:  87;

IMPERIAL       PTCLDY    73  67  81 SE16      29.92S
6HR MIN TEMP:  72; 6HR MAX TEMP:  91;

LEXINGTON      CLEAR     73  69  87 SE9       29.95F
MCCOOK         MOCLDY    73  69  87 SE15G28   29.92F
6HR MIN TEMP:  73; 6HR MAX TEMP:  88;

OGALLALA       TSTM      73  62  68 N22G35    30.02R
$$

NEZ005>010-023>029-035>040-094-110700-
NORTH CENTRAL NEBRASKA

CITY           SKY/WX    TMP DP  RH WIND       PRES   REMARKS
VALENTINE      CLOUDY    68  66  93 S6        29.92F
6HR MIN TEMP:  68; 6HR MAX TEMP:  89; 6HR PCP:  0.05;

AINSWORTH      CLOUDY    71  68  90 S7        29.95F
BROKEN BOW     CLOUDY    73  67  81 SE8       29.97R
6HR MIN TEMP:  72; 6HR MAX TEMP:  84;

O`NEILL        LGT RAIN  72  65  77 S10       29.93S
ORD            CLOUDY    71  65  81 SE7       29.95S
6HR MIN TEMP:  71; 6HR MAX TEMP:  82;

THEDFORD       CLOUDY    77  68  73 S9        29.98F
$$

NEZ041-046>049-061>064-073>077-083>087-110700-
SOUTH CENTRAL NEBRASKA

CITY           SKY/WX    TMP DP  RH WIND       PRES   REMARKS
GRAND ISLAND   PTCLDY    73  64  73 S21       29.97F
6HR MIN TEMP:  73; 6HR MAX TEMP:  83;

AURORA         PTCLDY    72  65  80 S9        29.99S
HASTINGS       CLEAR     72  63  73 S13G23    29.97F
6HR MIN TEMP:  72; 6HR MAX TEMP:  83;

HEBRON         CLEAR     74  64  71 SE8       30.00S
HOLDREGE       CLEAR     73  67  83 SE14      29.96F
KEARNEY *      PTCLDY    70  64  83 SE8       29.97S
YORK           CLEAR     72  64  78 S12       29.99F
$$

NEZ011>018-030>034-042>045-110700-
NORTHEAST NEBRASKA

CITY           SKY/WX    TMP DP  RH WIND       PRES   REMARKS
NORFOLK        PTCLDY    73  63  70 S16G24    29.94F
6HR MIN TEMP:  73; 6HR MAX TEMP:  82;

ALBION         PTCLDY    72  62  71 S14       29.96F
BLAIR          CLEAR     73  64  75 S12G20    30.01S
FREMONT        CLEAR     74  66  75 SE12G20   30.00S
TEKAMAH        CLEAR     72  65  78 SE9       29.99S
6HR MIN TEMP:  72; 6HR MAX TEMP:  84;

WAYNE          PTCLDY    74  66  77 S16G22    29.97R
$$

NEZ050>053-065>068-078-088>093-110700-
SOUTHEAST NEBRASKA

CITY           SKY/WX    TMP DP  RH WIND       PRES   REMARKS
LINCOLN        CLEAR     74  65  73 S13       30.01S
6HR MIN TEMP:  73; 6HR MAX TEMP:  85;

OMAHA EPPLEY   CLEAR     73  64  73 SE15      30.01S
6HR MIN TEMP:  73; 6HR MAX TEMP:  83;

BEATRICE       CLEAR     70  64  83 SE10      30.01R
FALLS CITY     CLEAR     68  66  93 SE8       30.03S
6HR MIN TEMP:  68; 6HR MAX TEMP:  83;

NEBRASKA CITY  CLEAR     69  65  87 S8        30.03S
PLATTSMOUTH    CLEAR     72  65  79 SE12G21   30.03S
$$

NEZ044-045-051>053-067-110700-
OMAHA AREA

CITY           SKY/WX    TMP DP  RH WIND       PRES   REMARKS
OMAHA EPPLEY   CLEAR     73  64  73 SE15      30.01S
6HR MIN TEMP:  73; 6HR MAX TEMP:  83;

BLAIR          CLEAR     73  64  75 S12G20    30.01S
FREMONT        CLEAR     74  66  75 SE12G20   30.00S
MILLARD        CLEAR     73  66  80 SE9       30.01S
OFFUTT AFB     CLEAR     71  69  93 SE10      30.02S
PLATTSMOUTH    CLEAR     72  65  79 SE12G21   30.03S
WAHOO          FAIR      72  65  81 S9        29.99F
$$



USA.gov is the U.S. government's official web portal to all federal, state and local government web resources and services.